EW3708 Weather Reports


time (UTC)temp
F
wind
direction
speed
knots
gust
knots
rain 1hr
in
rain 24hr
in
rain mn
in
humidity
%
barometer
mb
20260506004554 71 142 5.2 12.2 0.00 0.01 0.01 43 1006.6
20260506003056 71 163 2.6 8.7 0.00 0.01 0.01 42 1006.6
20260506001556 72 200 5.2 8.7 0.00 0.01 0.01 42 1006.5
20260506000053 72 158 4.3 7.8 0.00 0.01 0.01 41 1006.3
20260505234552 73 134 3.5 7.8 0.00 0.01 0.01 39 1006.3
20260505233051 73 177 3.5 7.8 0.00 0.01 0.01 37 1006.2
20260505231605 73 160 2.6 8.7 0.00 0.01 0.01 37 1006.2
20260505230049 73 132 3.5 7.8 0.00 0.01 0.01 38 1006.1
20260505224548 73 196 2.6 12.2 0.00 0.01 0.01 37 1006.1
20260505223048 73 150 4.3 10.4 0.00 0.01 0.01 37 1006.0
20260505221547 74 123 3.5 12.2 0.00 0.01 0.01 37 1006.0
20260505220051 74 145 5.2 11.3 0.00 0.01 0.01 36 1005.9
20260505214554 74 149 4.3 14.8 0.00 0.01 0.01 36 1005.8
20260505213044 74 159 6.1 13.0 0.00 0.01 0.01 35 1005.8
20260505211543 75 152 4.3 16.5 0.00 0.01 0.01 33 1005.7
20260505210044 76 133 7.0 13.9 0.00 0.01 0.01 33 1005.6
20260505204539 76 146 6.1 17.4 0.00 0.01 0.01 33 1005.4
20260505203054 77 166 7.0 13.9 0.00 0.01 0.01 32 1005.6
20260505201543 78 155 6.1 16.5 0.00 0.01 0.01 32 1005.4
20260505200043 77 172 7.8 13.9 0.00 0.01 0.01 33 1005.4
20260505194537 78 193 7.0 13.9 0.00 0.01 0.01 33 1005.7
20260505193034 79 215 4.3 15.6 0.00 0.01 0.01 32 1005.8
20260505191531 78 171 6.1 15.6 0.00 0.01 0.01 34 1006.1
20260505190036 78 123 5.2 17.4 0.00 0.01 0.01 34 1006.2
20260505184534 78 173 4.3 18.2 0.00 0.01 0.01 32 1006.2
20260505183027 79 143 4.3 19.1 0.00 0.01 0.01 33 1006.4
20260505181528 79 132 5.2 15.6 0.00 0.01 0.01 33 1006.7
20260505180022 78 213 5.2 15.6 0.00 0.01 0.01 32 1006.9
20260505174528 78 184 9.6 16.5 0.00 0.01 0.01 32 1006.9
20260505173017 77 148 6.1 17.4 0.00 0.01 0.01 36 1007.2
20260505171516 77 153 7.8 17.4 0.00 0.01 0.01 35 1007.1
20260505170018 76 116 5.2 14.8 0.00 0.01 0.01 36 1007.1
20260505164512 76 146 5.2 10.4 0.00 0.01 0.01 38 1007.4
20260505163013 76 214 4.3 14.8 0.00 0.01 0.01 40 1007.5
20260505161507 75 123 2.6 16.5 0.00 0.01 0.01 43 1007.8
20260505153106 72 227 3.5 9.6 0.00 0.01 0.01 47 1008.3
20260505151604 71 167 4.3 13.9 0.00 0.01 0.01 49 1008.2
20260505124555 63 171 1.7 5.2 0.00 0.01 0.01 62 1008.8
20260505123050 62 158 2.6 7.0 0.00 0.01 0.01 65 1008.9
20260505121558 60 167 3.5 8.7 0.00 0.01 0.01 68 1008.8
20260505120044 59 157 3.5 7.8 0.00 0.01 0.01 69 1008.8
20260505114540 58 248 2.6 7.0 0.00 0.01 0.01 72 1009.0
20260505113040 56 148 1.7 6.1 0.00 0.01 0.01 77 1008.8
20260505111541 55 136 1.7 4.3 0.00 0.01 0.01 79 1008.5
20260505101535 52 281 0.0 1.7 0.00 0.01 0.01 88 1008.5
20260505100034 52 281 0.0 1.7 0.00 0.01 0.01 88 1008.3
20260505094535 52 281 0.0 0.9 0.00 0.01 0.01 86 1008.3
20260505093034 53 281 0.0 1.7 0.01 0.01 0.01 85 1008.2
20260505091528 54 281 0.0 2.6 0.01 0.01 0.01 83 1008.1
20260505090021 55 287 0.0 4.3 0.01 0.01 0.01 80 1008.3
20260505084519 56 241 2.6 8.7 0.01 0.01 0.01 75 1008.1
20260505083014 57 147 1.7 3.5 0.00 0.00 0.00 65 1008.3
20260505081516 57 207 0.9 3.5 0.00 0.00 0.00 64 1008.4
20260505080010 57 144 1.7 3.5 0.00 0.00 0.00 63 1008.1
20260505074509 57 142 1.7 3.5 0.00 0.00 0.00 63 1008.1
20260505073008 57 153 0.9 4.3 0.00 0.00 0.00 62 1008.1
20260505071507 58 179 0.9 3.5 0.00 0.00 0.00 61 1008.2
20260505070006 58 149 1.7 5.2 0.00 0.00 0.00 61 1008.2
20260505064506 58 158 1.7 3.5 0.00 0.00 0.00 60 1008.4
20260505063002 58 184 1.7 6.1 0.00 0.00 0.00 59 1008.5
20260505061502 58 186 3.5 8.7 0.00 0.00 0.00 58 1008.6
20260505054559 58 142 2.6 7.8 0.00 0.00 0.00 57 1008.6
20260505053106 58 172 4.3 7.8 0.00 0.00 0.00 57 1008.6
20260505051554 58 138 2.6 8.7 0.00 0.00 0.00 56 1008.5
20260505041546 58 138 2.6 7.8 0.00 0.00 0.00 53 1008.4
20260505040044 59 139 1.7 7.0 0.00 0.00 0.00 53 1008.5
20260505034542 59 140 4.3 7.8 0.00 0.00 0.00 52 1008.4
20260505033104 59 133 3.5 12.2 0.00 0.00 0.00 51 1008.4
20260505031541 59 141 3.5 8.7 0.00 0.00 0.00 51 1008.5
20260505030043 60 155 5.2 9.6 0.00 0.00 0.00 51 1008.7
20260505024540 60 139 4.3 10.4 0.00 0.00 0.00 50 1008.8
20260505023048 60 143 5.2 8.7 0.00 0.00 0.00 50 1008.9
20260505021540 60 158 3.5 11.3 0.00 0.00 0.00 50 1008.9
20260505020045 60 156 3.5 9.6 0.00 0.00 0.00 50 1008.9
20260505014540 60 180 3.5 7.8 0.00 0.00 0.00 50 1008.8
20260505013038 61 148 3.5 9.6 0.00 0.00 0.00 49 1008.8
20260505011537 61 164 2.6 8.7 0.00 0.00 0.00 49 1008.8
20260505010041 62 148 2.6 8.7 0.00 0.00 0.00 48 1008.6